Location: Bettgenhausen
(50.6463°N, 7.5681°E)
Time: 09:50:27
(UTC+00:00)

NOSS 3-2 (C) - Pass Details

Date: 27 February 2020
Orbit: 811 x 1401 km, 63.4° (Epoch: 06 April)

Event Time Altitude Azimuth Distance (km) Brightness Sun altitude
Rises 19:00:19 0° 314° (NW) 3,857 7.6 -18.7°
Reaches altitude 10° 19:02:53 10° 318° (NW) 2,982 6.8 -19.1°
Maximum altitude 19:10:03 62° 39° (NE) 1,364 4.1 -20.2°
Enters shadow 19:13:51 33° 107° (ESE) 2,018 4.6 -20.8°
